GW6676 Weather Reports


Display with metric or nautical units.
time (UTC)temp
F
wind
direction
speed
MPH
gust
MPH
rain 1hr
in
rain 24hr
in
rain mn
in
humidity
%
barometer
mb
20260506191518 77 221 4.0 9.0 0.00 0.00 0.00 42 1016.8
20260506191006 77 248 3.0 9.0 0.00 0.00 0.00 41 1016.8
20260506190507 77 327 3.0 11.0 0.00 0.00 0.00 39 1016.9
20260506190021 77 277 3.0 11.0 0.00 0.00 0.00 40 1016.9
20260506185507 77 266 3.0 8.0 0.00 0.00 0.00 41 1016.9
20260506185009 77 296 4.0 8.0 0.00 0.00 0.00 43 1017.1
20260506184529 76 304 2.0 6.0 0.00 0.00 0.00 42 1017.1
20260506184013 76 262 2.0 6.0 0.00 0.00 0.00 44 1017.2
20260506183510 76 304 1.0 9.0 0.00 0.00 0.00 42 1017.2
20260506183026 76 254 3.0 9.0 0.00 0.00 0.00 44 1017.2
20260506182507 75 315 2.0 6.0 0.00 0.00 0.00 41 1017.3
20260506182007 75 196 1.0 7.0 0.00 0.00 0.00 43 1017.3
20260506181515 75 5 0.0 7.0 0.00 0.00 0.00 43 1017.3
20260506181007 74 254 1.0 10.0 0.00 0.00 0.00 46 1017.4
20260506180509 74 209 2.0 10.0 0.00 0.00 0.00 44 1017.5
20260506180005 74 86 1.0 5.0 0.00 0.00 0.00 43 1017.5
20260506175501 73 221 1.0 5.0 0.00 0.00 0.00 49 1017.5
20260506175002 73 271 3.0 5.0 0.00 0.00 0.00 49 1017.6
20260506174504 72 168 1.0 7.0 0.00 0.00 0.00 46 1017.6
20260506174007 72 330 1.0 7.0 0.00 0.00 0.00 46 1017.6
20260506173504 72 201 2.0 7.0 0.00 0.00 0.00 48 1017.9
20260506173013 72 234 3.0 7.0 0.00 0.00 0.00 48 1017.8
20260506172503 72 257 1.0 4.0 0.00 0.00 0.00 48 1017.8
20260506172006 71 179 2.0 4.0 0.00 0.00 0.00 49 1017.8
20260506171515 71 292 2.0 4.0 0.00 0.00 0.00 49 1017.8
20260506171004 70 264 1.0 4.0 0.00 0.00 0.00 51 1017.7
20260506170508 69 256 2.0 4.0 0.00 0.00 0.00 51 1017.7
20260506170018 69 203 0.0 4.0 0.00 0.00 0.00 51 1017.8
20260506165508 68 238 1.0 6.0 0.00 0.00 0.00 51 1017.7
20260506165003 68 270 0.0 6.0 0.00 0.00 0.00 52 1017.7
20260506164504 68 263 1.0 7.0 0.00 0.00 0.00 54 1017.7
20260506164002 67 250 2.0 7.0 0.00 0.00 0.00 53 1017.7
20260506163506 67 245 2.0 5.0 0.00 0.00 0.00 52 1017.7
20260506163008 66 193 3.0 5.0 0.00 0.00 0.00 54 1017.7
20260506162503 66 215 1.0 3.0 0.00 0.00 0.00 58 1017.8
20260506162009 65 216 1.0 3.0 0.00 0.00 0.00 60 1017.9
20260506161511 64 219 1.0 3.0 0.00 0.00 0.00 60 1017.9
20260506161010 64 242 0.0 2.0 0.00 0.00 0.00 60 1018.0
20260506160510 63 270 0.0 2.0 0.00 0.00 0.00 62 1017.8
20260506160016 62 209 0.0 2.0 0.00 0.00 0.00 61 1017.9
20260506155506 61 237 0.0 2.0 0.00 0.00 0.00 66 1018.0
20260506155009 60 232 0.0 2.0 0.00 0.00 0.00 63 1017.9
20260506154524 59 221 0.0 2.0 0.00 0.00 0.00 67 1018.0
20260506154018 58 202 0.0 3.0 0.00 0.00 0.00 68 1018.1
20260506153502 58 129 0.0 3.0 0.00 0.00 0.00 70 1018.0
20260506153004 57 214 0.0 2.0 0.00 0.00 0.00 74 1018.2
20260506152504 55 225 1.0 2.0 0.00 0.00 0.00 75 1018.1
20260506152006 54 78 0.0 2.0 0.00 0.00 0.00 76 1018.3
20260506151509 53 69 0.0 2.0 0.00 0.00 0.00 80 1018.2
20260506151003 52 289 0.0 2.0 0.00 0.00 0.00 83 1018.2
20260506150507 51 281 0.0 2.0 0.00 0.00 0.00 84 1018.2
20260506150016 50 281 0.0 2.0 0.00 0.00 0.00 86 1018.2
20260506145511 49 281 0.0 2.0 0.00 0.00 0.00 88 1018.3
20260506145009 48 288 0.0 2.0 0.00 0.00 0.00 89 1018.4
20260506144522 48 300 0.0 2.0 0.00 0.00 0.00 89 1018.3
20260506144006 47 300 0.0 2.0 0.00 0.00 0.00 89 1018.5
20260506143508 46 293 0.0 2.0 0.00 0.00 0.00 89 1018.3
20260506143026 46 293 0.0 1.0 0.00 0.00 0.00 89 1018.2
20260506142513 45 323 0.0 2.0 0.00 0.00 0.00 89 1018.4
20260506142007 45 323 0.0 2.0 0.00 0.00 0.00 89 1018.3
20260506141508 44 323 0.0 2.0 0.00 0.00 0.00 88 1018.3
20260506141006 44 323 0.0 2.0 0.00 0.00 0.00 88 1018.3
20260506140506 43 323 0.0 2.0 0.00 0.00 0.00 87 1018.2
20260506140014 43 312 0.0 2.0 0.00 0.00 0.00 87 1018.3
20260506135508 43 312 0.0 1.0 0.00 0.00 0.00 87 1018.2
20260506135008 43 312 0.0 1.0 0.00 0.00 0.00 87 1017.9
20260506134520 43 312 0.0 2.0 0.00 0.00 0.00 87 1018.0
20260506134008 43 312 0.0 2.0 0.00 0.00 0.00 86 1018.0
20260506133506 43 312 0.0 0.0 0.00 0.00 0.00 86 1018.1
20260506133022 43 312 0.0 0.0 0.00 0.00 0.00 86 1017.9
20260506132513 43 319 0.0 0.0 0.00 0.00 0.00 86 1017.9
20260506132007 43 319 0.0 2.0 0.00 0.00 0.00 86 1017.9
20260506131531 43 319 0.0 2.0 0.00 0.00 0.00 86 1017.9
20260506131011 43 319 0.0 0.0 0.00 0.00 0.00 86 1017.9
20260506130506 43 314 0.0 0.0 0.00 0.00 0.00 86 1017.9
20260506130012 43 314 0.0 0.0 0.00 0.00 0.00 86 1017.6
20260506125506 43 314 0.0 0.0 0.00 0.00 0.00 86 1017.8
20260506125009 43 314 0.0 0.0 0.00 0.00 0.00 86 1017.6
20260506124516 43 314 0.0 0.0 0.00 0.00 0.00 86 1017.5
20260506124007 43 314 0.0 0.0 0.00 0.00 0.00 86 1017.4
20260506123507 43 314 0.0 0.0 0.00 0.00 0.00 86 1017.6
20260506123020 44 314 0.0 0.0 0.00 0.00 0.00 86 1017.5
20260506122507 44 314 0.0 0.0 0.00 0.00 0.00 86 1017.5
20260506122010 44 314 0.0 0.0 0.00 0.00 0.00 86 1017.4
20260506121531 44 314 0.0 2.0 0.00 0.00 0.00 86 1017.4
20260506121011 44 314 0.0 2.0 0.00 0.00 0.00 86 1017.3
20260506120508 44 314 0.0 2.0 0.00 0.00 0.00 86 1017.5
20260506120014 44 320 0.0 2.0 0.00 0.00 0.00 86 1017.4
20260506115511 44 350 0.0 0.0 0.00 0.00 0.00 86 1017.3
20260506115007 44 350 0.0 2.0 0.00 0.00 0.00 86 1017.2
20260506114516 44 350 0.0 2.0 0.00 0.00 0.00 86 1017.2
20260506114007 44 350 0.0 1.0 0.00 0.00 0.00 86 1017.3
20260506113504 44 350 0.0 0.0 0.00 0.00 0.00 86 1017.2
20260506113005 44 350 0.0 0.0 0.00 0.00 0.00 86 1017.3
20260506112503 45 350 0.0 2.0 0.00 0.00 0.00 86 1017.2
20260506112003 45 350 0.0 2.0 0.00 0.00 0.00 86 1017.2
20260506111504 44 350 0.0 1.0 0.00 0.00 0.00 85 1017.2
20260506111004 44 350 0.0 2.0 0.00 0.00 0.00 85 1017.3
20260506110504 44 350 0.0 2.0 0.00 0.00 0.00 84 1017.2
20260506110006 44 350 0.0 2.0 0.00 0.00 0.00 84 1017.1
20260506105504 44 350 0.0 2.0 0.00 0.00 0.00 84 1017.3
20260506105005 44 18 0.0 2.0 0.00 0.00 0.00 84 1017.2
20260506104510 45 18 0.0 0.0 0.00 0.00 0.00 84 1017.1
20260506104006 45 18 0.0 0.0 0.00 0.00 0.00 83 1017.2
20260506103509 45 18 0.0 1.0 0.00 0.00 0.00 83 1017.3
20260506103016 45 18 0.0 1.0 0.00 0.00 0.00 83 1017.4
20260506102507 45 18 0.0 0.0 0.00 0.00 0.00 83 1017.3
20260506102008 45 18 0.0 1.0 0.00 0.00 0.00 83 1017.4
20260506101506 45 18 0.0 1.0 0.00 0.00 0.00 83 1017.4
20260506101003 45 18 0.0 0.0 0.00 0.00 0.00 83 1017.4
20260506100502 46 18 0.0 0.0 0.00 0.00 0.00 83 1017.4
20260506100023 46 18 0.0 0.0 0.00 0.00 0.00 83 1017.4
20260506095506 46 18 0.0 0.0 0.00 0.00 0.00 83 1017.6
20260506095004 46 18 0.0 2.0 0.00 0.00 0.00 83 1017.5
20260506094520 46 18 0.0 2.0 0.00 0.00 0.00 83 1017.5
20260506094008 47 18 0.0 0.0 0.00 0.00 0.00 84 1017.5
20260506093506 47 18 0.0 0.0 0.00 0.00 0.00 84 1017.4
20260506093015 47 18 0.0 0.0 0.00 0.00 0.00 84 1017.5
20260506092506 47 18 0.0 0.0 0.00 0.00 0.00 84 1017.5
20260506092013 47 18 0.0 0.0 0.00 0.00 0.00 84 1017.5
20260506091520 47 18 0.0 0.0 0.00 0.00 0.00 83 1017.4
20260506091007 47 18 0.0 0.0 0.00 0.00 0.00 79 1017.5
20260506090506 47 18 0.0 0.0 0.00 0.00 0.00 79 1017.5
20260506090005 47 18 0.0 2.0 0.00 0.00 0.00 79 1017.5
20260506085503 47 18 0.0 2.0 0.00 0.00 0.00 79 1017.4
20260506085004 47 18 0.0 2.0 0.00 0.00 0.00 78 1017.4
20260506084507 47 18 0.0 2.0 0.00 0.00 0.00 78 1017.4
20260506084004 47 18 0.0 2.0 0.00 0.00 0.00 78 1017.5
20260506083505 47 18 0.0 1.0 0.00 0.00 0.00 78 1017.4
20260506083011 48 18 0.0 1.0 0.00 0.00 0.00 77 1017.5
20260506082508 48 18 0.0 1.0 0.00 0.00 0.00 77 1017.5
20260506082006 48 18 0.0 1.0 0.00 0.00 0.00 77 1017.5
20260506081517 48 18 0.0 0.0 0.00 0.00 0.00 76 1017.6
20260506081006 48 18 0.0 0.0 0.00 0.00 0.00 76 1017.6
20260506080506 48 18 0.0 0.0 0.00 0.00 0.00 76 1017.6
20260506073504 49 18 0.0 0.0 0.00 0.00 0.00 75 1017.4
20260506073016 50 18 0.0 0.0 0.00 0.00 0.00 75 1017.5
20260506072504 50 18 0.0 0.0 0.00 0.00 0.00 74 1017.4
20260506072008 50 18 0.0 0.0 0.00 0.00 0.00 74 1017.3
20260506071517 50 18 0.0 0.0 0.00 0.00 0.00 74 1017.2
20260506071010 51 18 0.0 0.0 0.00 0.00 0.00 73 1017.1
20260506070506 51 18 0.0 0.0 0.00 0.00 0.00 73 1017.0
20260506062505 52 18 0.0 0.0 0.00 0.00 0.00 71 1016.5
20260506062009 53 18 0.0 0.0 0.00 0.00 0.00 71 1016.5
20260506061512 53 18 0.0 1.0 0.00 0.00 0.00 71 1016.5
20260506061006 53 18 0.0 1.0 0.00 0.00 0.00 71 1016.5
20260506060506 53 18 0.0 2.0 0.00 0.00 0.00 71 1016.5
20260506051005 54 5 0.0 2.0 0.00 0.00 0.00 68 1016.1
20260506050506 54 9 0.0 3.0 0.00 0.00 0.00 68 1016.1
20260506045007 55 62 0.0 2.0 0.00 0.00 0.00 66 1015.8
20260506044549 55 95 0.0 0.0 0.00 0.00 0.00 65 1015.8
20260506044005 55 95 0.0 0.0 0.00 0.00 0.00 64 1015.8
20260506043510 55 95 0.0 0.0 0.00 0.00 0.00 64 1015.7
20260506043026 56 95 0.0 0.0 0.00 0.00 0.00 64 1015.7
20260506042509 56 95 0.0 2.0 0.00 0.00 0.00 63 1015.6
20260506042012 56 95 0.0 2.0 0.00 0.00 0.00 63 1015.5
20260506041527 56 94 0.0 2.0 0.00 0.00 0.00 63 1015.4
20260506041012 57 115 0.0 2.0 0.00 0.00 0.00 62 1015.2
20260506040510 57 115 0.0 1.0 0.00 0.00 0.00 62 1015.1
20260506040013 57 115 0.0 2.0 0.00 0.00 0.00 62 1015.2
20260506035506 57 115 0.0 2.0 0.00 0.00 0.00 61 1015.0
20260506035007 57 115 0.0 2.0 0.00 0.00 0.00 61 1015.0
20260506034538 58 190 0.0 2.0 0.00 0.00 0.00 61 1014.9
20260506034003 58 182 0.0 2.0 0.00 0.00 0.00 60 1014.8
20260506033503 58 195 0.0 2.0 0.00 0.00 0.00 60 1014.7
20260506033007 58 195 0.0 2.0 0.00 0.00 0.00 59 1014.8
20260506032503 58 184 0.0 2.0 0.00 0.00 0.00 59 1014.7
20260506032003 59 198 0.0 2.0 0.00 0.00 0.00 59 1014.6
20260506031504 59 198 1.0 4.0 0.00 0.00 0.00 59 1014.5
20260506031004 59 222 1.0 5.0 0.00 0.00 0.00 58 1014.5
20260506030504 59 207 1.0 5.0 0.00 0.00 0.00 58 1014.5
20260506030004 59 211 2.0 4.0 0.00 0.00 0.00 58 1014.3
20260506025503 60 213 1.0 4.0 0.00 0.00 0.00 58 1014.4
20260506025004 60 239 2.0 5.0 0.00 0.00 0.00 57 1014.3
20260506024504 60 269 1.0 6.0 0.00 0.00 0.00 57 1014.2
20260506024006 60 214 2.0 6.0 0.00 0.00 0.00 57 1014.1
20260506023506 61 249 3.0 6.0 0.00 0.00 0.00 56 1014.0
20260506023003 61 217 1.0 6.0 0.00 0.00 0.00 55 1014.1
20260506022503 61 192 1.0 6.0 0.00 0.00 0.00 55 1014.0
20260506022003 62 207 3.0 6.0 0.00 0.00 0.00 55 1014.0
20260506021506 62 234 1.0 4.0 0.00 0.00 0.00 54 1014.0
20260506021004 62 198 2.0 5.0 0.00 0.00 0.00 54 1014.0
20260506020504 62 226 2.0 5.0 0.00 0.00 0.00 54 1013.8
20260506020006 62 248 1.0 5.0 0.00 0.00 0.00 53 1013.7
20260506015504 62 128 1.0 5.0 0.00 0.00 0.00 53 1013.7
20260506015006 62 204 1.0 4.0 0.00 0.00 0.00 53 1013.6
20260506014507 62 212 1.0 6.0 0.00 0.00 0.00 53 1013.6
20260506014004 63 221 1.0 6.0 0.00 0.00 0.00 53 1013.5
20260506013505 63 133 1.0 6.0 0.00 0.00 0.00 52 1013.6
20260506013006 64 255 3.0 6.0 0.00 0.00 0.00 52 1013.5
20260506012503 64 250 2.0 6.0 0.00 0.00 0.00 51 1013.5
20260506012003 64 227 1.0 6.0 0.00 0.00 0.00 51 1013.6
20260506011507 64 188 2.0 7.0 0.00 0.00 0.00 51 1013.5
20260506011005 64 242 3.0 7.0 0.00 0.00 0.00 51 1013.5
20260506010503 64 180 3.0 6.0 0.00 0.00 0.00 51 1013.5
20260506010007 64 248 2.0 6.0 0.00 0.00 0.00 51 1013.5
20260506005503 64 221 2.0 9.0 0.00 0.00 0.00 51 1013.4
20260506005002 64 221 1.0 9.0 0.00 0.00 0.00 51 1013.4
20260506004516 65 233 3.0 7.0 0.00 0.00 0.00 52 1013.4
20260506004004 65 237 2.0 10.0 0.00 0.00 0.00 51 1013.3
20260506003504 65 202 3.0 10.0 0.00 0.00 0.00 52 1013.2
20260506003009 65 32 3.0 10.0 0.00 0.00 0.00 51 1013.3
20260506002508 65 212 6.0 10.0 0.00 0.00 0.00 52 1013.3
20260506002003 65 188 5.0 10.0 0.00 0.00 0.00 52 1013.2
20260506001508 64 246 3.0 10.0 0.00 0.00 0.00 53 1013.2
20260506001004 64 199 2.0 7.0 0.00 0.00 0.00 52 1013.1
20260506000504 64 215 3.0 7.0 0.00 0.00 0.00 52 1013.1
20260506000005 63 86 1.0 7.0 0.00 0.00 0.00 53 1013.0
20260505235504 63 218 1.0 8.0 0.00 0.00 0.00 51 1013.1
20260505235006 63 269 1.0 10.0 0.00 0.00 0.00 51 1013.0
20260505234510 63 235 2.0 10.0 0.00 0.00 0.00 51 1013.1
20260505234004 64 203 1.0 9.0 0.00 0.00 0.00 51 1013.0
20260505233506 64 99 3.0 9.0 0.00 0.00 0.00 52 1013.1
20260505233010 64 175 2.0 7.0 0.00 0.00 0.00 55 1013.1
20260505232505 63 200 3.0 7.0 0.00 0.00 0.00 54 1013.2
20260505232004 63 144 2.0 8.0 0.00 0.00 0.00 54 1013.1
20260505231513 63 217 3.0 8.0 0.00 0.00 0.00 54 1013.2
20260505231003 63 186 4.0 7.0 0.00 0.00 0.00 55 1013.2
20260505230503 63 169 2.0 7.0 0.00 0.00 0.00 55 1013.4
20260505230012 63 182 3.0 7.0 0.00 0.00 0.00 54 1013.3
20260505225504 64 215 2.0 8.0 0.00 0.00 0.00 54 1013.2
20260505225004 63 192 3.0 10.0 0.00 0.00 0.00 54 1013.1
20260505224510 64 234 3.0 10.0 0.00 0.00 0.00 53 1013.2
20260505224006 64 222 2.0 8.0 0.00 0.00 0.00 53 1013.2
20260505223506 64 254 2.0 8.0 0.00 0.00 0.00 53 1013.2
20260505223010 64 165 3.0 7.0 0.00 0.00 0.00 52 1013.3
20260505222508 64 209 1.0 6.0 0.00 0.00 0.00 52 1013.4
20260505222006 64 242 2.0 6.0 0.00 0.00 0.00 52 1013.2
20260505221515 64 194 4.0 6.0 0.00 0.00 0.00 52 1013.2
20260505221006 64 165 2.0 6.0 0.00 0.00 0.00 52 1013.2
20260505220508 64 139 2.0 8.0 0.00 0.00 0.00 51 1013.3
20260505220022 64 221 1.0 8.0 0.00 0.00 0.00 50 1013.4
20260505215506 65 160 3.0 9.0 0.00 0.00 0.00 50 1013.3
20260505215006 65 225 3.0 9.0 0.00 0.00 0.00 50 1013.3
20260505214516 66 210 2.0 7.0 0.00 0.00 0.00 50 1013.2
20260505214007 67 250 3.0 7.0 0.00 0.00 0.00 50 1013.3
20260505213508 67 246 1.0 7.0 0.00 0.00 0.00 50 1013.3
20260505213012 67 260 3.0 8.0 0.00 0.00 0.00 50 1013.4
20260505212512 67 240 3.0 8.0 0.00 0.00 0.00 1013.4
20260505212012 67 204 3.0 10.0 0.00 0.00 0.00 49 1013.4
20260505211514 67 302 4.0 10.0 0.00 0.00 0.00 49 1013.4
20260505211006 67 209 4.0 8.0 0.00 0.00 0.00 49 1013.4
20260505210506 67 207 3.0 8.0 0.00 0.00 0.00 50 1013.4
20260505210015 68 231 6.0 9.0 0.00 0.00 0.00 52 1013.5
20260505205508 68 198 4.0 11.0 0.00 0.00 0.00 50 1013.5
20260505205007 68 260 5.0 11.0 0.00 0.00 0.00 49 1013.5
20260505204513 69 261 5.0 9.0 0.00 0.00 0.00 48 1013.5
20260505204011 69 263 3.0 9.0 0.00 0.00 0.00 50 1013.5
20260505203510 68 217 3.0 6.0 0.00 0.00 0.00 1013.5
20260505203014 67 246 3.0 8.0 0.00 0.00 0.00 50 1013.6
20260505202505 67 238 3.0 8.0 0.00 0.00 0.00 50 1013.6
20260505202009 66 254 3.0 11.0 0.00 0.00 0.00 51 1013.5
20260505201518 66 140 4.0 17.0 0.00 0.00 0.00 52 1013.5
20260505201008 64 223 3.0 17.0 0.00 0.00 0.00 52 1013.6
20260505200510 64 120 1.0 6.0 0.00 0.00 0.00 52 1013.6
20260505200019 64 261 2.0 6.0 0.00 0.00 0.00 53 1013.7
20260505195506 64 178 0.0 6.0 0.00 0.00 0.00 54 1013.8
20260505195009 64 196 3.0 6.0 0.00 0.00 0.00 58 1013.8
20260505194529 63 193 1.0 6.0 0.00 0.00 0.00 55 1013.8
20260505194008 63 224 1.0 4.0 0.00 0.00 0.00 55 1013.9
20260505193506 63 205 2.0 6.0 0.00 0.00 0.00 56 1014.0
20260505193034 63 161 1.0 6.0 0.00 0.00 0.00 55 1013.9
20260505192509 63 157 1.0 8.0 0.00 0.00 0.00 54 1014.0
20260505192007 63 84 2.0 8.0 0.00 0.00 0.00 1013.9